BAW226C HEAX-LGAV

Flight info

Callsign BAW226C
Flight time N/A
Altitude 40000
Route NOZ1B NOZ L551 ANTAR UN133 KPC UN137 RIPLI UL995 VARIX VARIX1R
Aircraft A35K/H-SBDE1E2E3GHIJ1J3J4J5J6M1M2P2RWXYZ/LB1D1

Departure

Time 2026-05-05 13:27
Airport Alexandria International Airport (HEAX)

Arrival

Time N/A
Airport Athens Eleftherios Venizelos International Airport (LGAV)
Time Latitude Longitude Altitude Speed Heading
2026-05-05 12:57 30.93157 29.69525 178 ft 0 kts 78°
2026-05-05 13:16 30.93156 29.69524 181 ft 1 kts 78°
2026-05-05 13:16 30.93155 29.69498 177 ft 2 kts 79°
2026-05-05 13:17 30.93149 29.69477 174 ft 4 kts 43°
2026-05-05 13:17 30.93139 29.69457 176 ft 4 kts 93°
2026-05-05 13:17 30.93149 29.69440 176 ft 3 kts 143°
2026-05-05 13:17 30.93170 29.69421 176 ft 4 kts 143°
2026-05-05 13:18 30.93188 29.69406 176 ft 0 kts 143°
2026-05-05 13:20 30.93186 29.69407 176 ft 1 kts 142°
2026-05-05 13:20 30.93171 29.69421 176 ft 5 kts 142°
2026-05-05 13:21 30.93133 29.69456 176 ft 9 kts 142°
2026-05-05 13:21 30.93075 29.69508 176 ft 13 kts 142°
2026-05-05 13:21 30.92994 29.69575 176 ft 16 kts 146°
2026-05-05 13:21 30.92882 29.69606 173 ft 17 kts 195°
2026-05-05 13:22 30.92807 29.69554 179 ft 11 kts 186°
2026-05-05 13:22 30.92758 29.69574 192 ft 6 kts 150°
2026-05-05 13:22 30.92690 29.69628 203 ft 19 kts 141°
2026-05-05 13:22 30.92577 29.69731 200 ft 22 kts 143°
2026-05-05 13:23 30.92448 29.69846 203 ft 25 kts 142°
2026-05-05 13:23 30.92306 29.69971 205 ft 27 kts 145°
2026-05-05 13:23 30.92145 29.70107 206 ft 29 kts 143°
2026-05-05 13:23 30.91972 29.70255 207 ft 32 kts 141°
2026-05-05 13:24 30.91842 29.70372 202 ft 23 kts 142°
2026-05-05 13:24 30.91699 29.70500 194 ft 28 kts 142°
2026-05-05 13:24 30.91533 29.70645 183 ft 33 kts 143°
2026-05-05 13:24 30.91337 29.70816 174 ft 38 kts 143°
2026-05-05 13:25 30.91125 29.71003 169 ft 26 kts 141°
2026-05-05 13:25 30.90979 29.71133 166 ft 13 kts 150°
2026-05-05 13:25 30.90910 29.71131 169 ft 9 kts 193°
2026-05-05 13:25 30.90864 29.71088 174 ft 16 kts 230°
2026-05-05 13:26 30.90766 29.70940 201 ft 29 kts 233°
2026-05-05 13:26 30.90657 29.70738 203 ft 30 kts 244°
2026-05-05 13:26 30.90645 29.70610 204 ft 13 kts 305°
2026-05-05 13:26 30.90697 29.70554 203 ft 8 kts 323°
2026-05-05 13:27 30.90924 29.70355 192 ft 91 kts 323°
2026-05-05 13:27 30.91694 29.69684 398 ft 168 kts 324°
2026-05-05 13:27 30.92664 29.68896 1718 ft 172 kts 327°
2026-05-05 13:27 30.93732 29.68276 2961 ft 168 kts 336°
2026-05-05 13:28 30.94804 29.67756 3820 ft 167 kts 335°
2026-05-05 13:28 30.95907 29.67284 4552 ft 173 kts 342°
2026-05-05 13:28 30.97132 29.67274 5282 ft 183 kts
2026-05-05 13:28 30.98244 29.68049 5900 ft 196 kts 43°
2026-05-05 13:29 30.98931 29.69460 6682 ft 204 kts 62°
2026-05-05 13:29 30.99472 29.71022 7318 ft 217 kts 63°
2026-05-05 13:29 31.00079 29.72774 7672 ft 249 kts 64°
2026-05-05 13:29 31.00773 29.74744 8134 ft 274 kts 64°
2026-05-05 13:30 31.01516 29.76843 8943 ft 286 kts 64°
2026-05-05 13:30 31.02293 29.79009 9915 ft 293 kts 63°
2026-05-05 13:30 31.03378 29.81034 10627 ft 302 kts 43°
2026-05-05 13:30 31.05015 29.82695 11036 ft 324 kts 33°
2026-05-05 13:31 31.06876 29.84338 11422 ft 348 kts 33°
2026-05-05 13:31 31.08849 29.86086 12000 ft 363 kts 34°
2026-05-05 13:31 31.10876 29.87908 12796 ft 371 kts 34°
2026-05-05 13:31 31.12976 29.89705 13657 ft 377 kts 29°
2026-05-05 13:32 31.15292 29.91136 14418 ft 378 kts 18°
2026-05-05 13:32 31.17813 29.91997 15221 ft 376 kts
2026-05-05 13:32 31.20397 29.92237 16086 ft 372 kts 353°
2026-05-05 13:32 31.22951 29.91868 16987 ft 368 kts 342°
2026-05-05 13:33 31.25366 29.90929 17900 ft 365 kts 332°
2026-05-05 13:33 31.27664 29.89669 18740 ft 366 kts 328°
2026-05-05 13:33 31.29927 29.88280 19488 ft 369 kts 327°
2026-05-05 13:33 31.32186 29.86825 20227 ft 373 kts 326°
2026-05-05 13:34 31.34463 29.85343 20986 ft 377 kts 326°
2026-05-05 13:34 31.36767 29.83852 21764 ft 381 kts 326°
2026-05-05 13:34 31.39100 29.82358 22559 ft 384 kts 326°
2026-05-05 13:34 31.41467 29.80858 23361 ft 389 kts 327°
2026-05-05 13:35 31.43857 29.79353 24071 ft 392 kts 327°
2026-05-05 13:35 31.46272 29.77839 24757 ft 395 kts 327°
2026-05-05 13:35 31.48709 29.76312 25436 ft 398 kts 327°
2026-05-05 13:35 31.51158 29.74777 26120 ft 401 kts 326°
2026-05-05 13:36 31.53627 29.73227 26822 ft 404 kts 326°
2026-05-05 13:36 31.56108 29.71669 27528 ft 406 kts 326°
2026-05-05 13:36 31.58601 29.70100 28221 ft 408 kts 326°
2026-05-05 13:36 31.61112 29.68519 28899 ft 411 kts 326°
2026-05-05 13:37 31.63638 29.66928 29544 ft 414 kts 326°
2026-05-05 13:37 31.66185 29.65321 30159 ft 417 kts 326°
2026-05-05 13:37 31.68753 29.63700 30646 ft 421 kts 326°
2026-05-05 13:37 31.71341 29.62065 31085 ft 425 kts 326°
2026-05-05 13:38 31.73960 29.60409 31503 ft 429 kts 326°
2026-05-05 13:38 31.76604 29.58737 31921 ft 433 kts 326°
2026-05-05 13:38 31.79270 29.57051 32314 ft 437 kts 326°
2026-05-05 13:38 31.81956 29.55352 32727 ft 440 kts 326°
2026-05-05 13:39 31.84661 29.53639 33208 ft 442 kts 326°
2026-05-05 13:39 31.87365 29.51928 33786 ft 441 kts 326°
2026-05-05 13:39 31.90061 29.50223 34334 ft 439 kts 326°
2026-05-05 13:39 31.92754 29.48517 34755 ft 439 kts 326°
2026-05-05 13:40 31.95446 29.46808 35160 ft 440 kts 326°
2026-05-05 13:40 31.98136 29.45099 35563 ft 440 kts 326°
2026-05-05 13:40 32.00831 29.43385 35961 ft 440 kts 326°
2026-05-05 13:40 32.03526 29.41673 36356 ft 440 kts 326°
2026-05-05 13:41 32.06219 29.39959 36722 ft 440 kts 326°
2026-05-05 13:41 32.08917 29.38238 37070 ft 441 kts 326°
2026-05-05 13:41 32.11612 29.36518 37482 ft 441 kts 326°
2026-05-05 13:41 32.14312 29.34794 37783 ft 442 kts 326°
2026-05-05 13:42 32.17017 29.33067 38103 ft 442 kts 326°
2026-05-05 13:42 32.19726 29.31336 38448 ft 442 kts 326°
2026-05-05 13:42 32.22434 29.29606 38760 ft 443 kts 326°
2026-05-05 13:42 32.25142 29.27873 39015 ft 443 kts 326°
2026-05-05 13:43 32.27851 29.26138 39264 ft 443 kts 326°
2026-05-05 13:43 32.30559 29.24401 39510 ft 443 kts 326°
2026-05-05 13:43 32.33265 29.22663 39749 ft 443 kts 326°
2026-05-05 13:43 32.35976 29.20922 39974 ft 443 kts 326°
2026-05-05 13:44 32.38686 29.19180 40085 ft 444 kts 326°
2026-05-05 13:44 32.41399 29.17435 40086 ft 444 kts 326°
2026-05-05 13:44 32.46825 29.13944 40076 ft 444 kts 326°
2026-05-05 13:45 32.52216 29.10468 40080 ft 444 kts 326°
2026-05-05 13:45 32.57639 29.06968 40080 ft 444 kts 326°
2026-05-05 13:46 32.63065 29.03461 40080 ft 444 kts 326°
2026-05-05 13:46 32.68488 28.99949 40084 ft 444 kts 326°
2026-05-05 13:47 32.73931 28.96420 40080 ft 446 kts 326°
2026-05-05 13:47 32.79383 28.92881 40078 ft 447 kts 326°
2026-05-05 13:48 32.84844 28.89332 40077 ft 447 kts 326°
2026-05-05 13:48 32.90303 28.85779 40078 ft 447 kts 326°
2026-05-05 13:49 32.95763 28.82220 40101 ft 447 kts 326°
2026-05-05 13:49 33.01223 28.78655 40079 ft 448 kts 326°
2026-05-05 13:50 33.06688 28.75083 40075 ft 448 kts 326°
2026-05-05 13:50 33.12154 28.71505 40076 ft 448 kts 326°
2026-05-05 13:51 33.17622 28.67920 40076 ft 448 kts 326°
2026-05-05 13:51 33.23088 28.64331 40075 ft 448 kts 327°
2026-05-05 13:52 33.28544 28.60743 40074 ft 447 kts 327°
2026-05-05 13:52 33.33073 28.57763 40075 ft 447 kts 327°
2026-05-05 13:53 33.38516 28.54174 40072 ft 447 kts 327°
2026-05-05 13:53 33.44846 28.49995 40072 ft 447 kts 327°
2026-05-05 13:54 33.49404 28.46981 40072 ft 447 kts 327°
2026-05-05 13:54 33.54847 28.43377 40075 ft 446 kts 327°
2026-05-05 13:55 33.60281 28.39774 40067 ft 446 kts 327°
2026-05-05 13:55 33.65705 28.36173 40068 ft 446 kts 327°
2026-05-05 13:56 33.71131 28.32564 40064 ft 445 kts 327°
2026-05-05 13:56 33.76512 28.28981 40067 ft 445 kts 327°
2026-05-05 13:57 33.81927 28.25368 40072 ft 445 kts 327°
2026-05-05 13:57 33.87324 28.21730 40066 ft 444 kts 327°
2026-05-05 13:58 33.92710 28.18082 40065 ft 444 kts 327°
2026-05-05 13:58 33.98102 28.14430 40063 ft 445 kts 327°
2026-05-05 13:59 34.06190 28.08947 40061 ft 445 kts 327°
2026-05-05 14:00 34.14266 28.03461 40062 ft 443 kts 327°
2026-05-05 14:00 34.19641 27.99805 40061 ft 443 kts 327°
2026-05-05 14:01 34.25003 27.96150 40061 ft 443 kts 327°
2026-05-05 14:01 34.30373 27.92484 40060 ft 443 kts 327°
2026-05-05 14:02 34.35740 27.88816 40074 ft 443 kts 327°
2026-05-05 14:02 34.41105 27.85143 40059 ft 443 kts 327°
2026-05-05 14:03 34.46472 27.81464 40058 ft 443 kts 327°
2026-05-05 14:03 34.51839 27.77779 40062 ft 443 kts 327°
2026-05-05 14:04 34.57201 27.74090 40064 ft 443 kts 327°
2026-05-05 14:04 34.62560 27.70385 40028 ft 443 kts 327°
2026-05-05 14:05 34.67919 27.66671 40015 ft 444 kts 327°
2026-05-05 14:05 34.73291 27.62963 39997 ft 444 kts 327°
2026-05-05 14:06 34.78678 27.59300 40010 ft 443 kts 328°
2026-05-05 14:06 34.84092 27.55701 40003 ft 443 kts 328°
2026-05-05 14:07 34.89546 27.52171 39979 ft 444 kts 329°
2026-05-05 14:07 34.95037 27.48704 39989 ft 444 kts 330°
2026-05-05 14:08 35.00545 27.45299 40018 ft 443 kts 330°
2026-05-05 14:08 35.06049 27.41956 40097 ft 441 kts 330°
2026-05-05 14:09 35.11578 27.38664 40023 ft 443 kts 331°
2026-05-05 14:09 35.17147 27.35421 39981 ft 444 kts 332°